Regional Weather Roundup
Issued by NWS

Home | Current Version | Previous Version | Graphics & Text | Print | Product List | Glossary On
Versions: 1 2 3 4 5 6 7 8 9 10 11 12 13 14 15 16 17 18 19 20 21 22 23 24 25 26 27 28 29 30 31 32 33 34 35 36 37 38 39 40 41 42 43 44 45 46 47 48 49 50
185
ASUS43 KLMK 030702
RWRKY
KENTUCKY REGIONAL WEATHER ROUNDUP
NATIONAL WEATHER SERVICE LOUISVILLE KY
300 AM EDT TUE MAY 03 2016

NOTE "FAIR" INDICATES FEW OR NO CLOUDS BELOW 12,000 FEET
WITH NO SIGNIFICANT WEATHER AND/OR OBSTRUCTIONS TO VISIBILITY.

KYZ001>023-026-027-061>063-070>075-030800-
WESTERN AND SOUTH CENTRAL KENTUCKY

CITY           SKY/WX    TMP DP  RH WIND       PRES   REMARKS
PADUCAH        CLOUDY    55  49  80 N5        29.98F
HENDERSON      PTCLDY    54  46  76 NW5       29.95F
OWENSBORO      CLOUDY    56  51  83 NW7       29.95F
HOPKINSVILLE   NOT AVBL
BOWLING GREEN  CLOUDY    57  51  80 W5        29.95F
GLASGOW        NOT AVBL
$$

KYZ024-025-028>034-038-045-046-053-030800-
NORTH CENTRAL KENTUCKY

CITY           SKY/WX    TMP DP  RH WIND       PRES   REMARKS
LOUISVILLE/SDF CLOUDY    57  48  72 W7        29.92F
LOUISVILLE/LOU CLOUDY    57  49  74 NW6       29.93F
FORT KNOX      NOT AVBL
$$

KYZ035>037-039>044-047>052-055>060-089>105-030800-
NORTHEAST KENTUCKY

CITY           SKY/WX    TMP DP  RH WIND       PRES   REMARKS
LEXINGTON      CLOUDY    55  50  83 NW7       29.91S
COVINGTON      CLOUDY    55  52  89 NW7       29.90F
FRANKFORT      CLOUDY    56  49  77 NW5       29.90S
$$

KYZ054-064>069-076>088-106>120-030800-
SOUTHEAST KENTUCKY

CITY           SKY/WX    TMP DP  RH WIND       PRES   REMARKS
JACKSON        LGT RAIN  58  56  93 VRB3      29.89F FOG
LONDON         CLOUDY    58  56  93 NW5       29.91S
SOMERSET       NOT AVBL
MIDDLESBORO    LGT RAIN  58  58 100 CALM      29.91S
MONTICELLO     CLOUDY    58  57  97 W5        29.93F
$$





USA.gov is the U.S. government's official web portal to all federal, state and local government web resources and services.